DW9439 Weather Reports


Display with metric or nautical units.
time (UTC)temp
F
wind
direction
speed
MPH
gust
MPH
rain 1hr
in
rain 24hr
in
rain mn
in
humidity
%
barometer
mb
20260510160533 50 44 4.0 7.0 0.00 0.10 0.10 86 1030.5
20260510160234 50 44 4.0 7.0 0.00 0.10 0.10 86 1030.5
20260510155924 50 44 4.0 7.0 0.00 0.10 0.10 86 1030.5
20260510155621 50 44 4.0 6.0 0.00 0.10 0.10 87 1030.4
20260510155314 50 44 4.0 8.0 0.00 0.10 0.10 87 1030.5
20260510155004 50 44 4.0 8.0 0.00 0.10 0.10 87 1030.4
20260510154706 50 44 4.0 8.0 0.00 0.10 0.10 87 1030.3
20260510153939 50 44 4.0 8.0 0.00 0.10 0.10 88 1030.2
20260510153641 50 44 4.0 8.0 0.00 0.10 0.10 88 1030.2
20260510153334 49 44 4.0 7.0 0.00 0.10 0.10 88 1030.1
20260510153024 49 44 4.0 7.0 0.00 0.10 0.10 88 1030.1
20260510152725 49 44 4.0 7.0 0.00 0.10 0.10 88 1030.1
20260510152424 49 44 4.0 7.0 0.00 0.10 0.10 88 1030.2
20260510152127 49 44 4.0 7.0 0.00 0.10 0.10 88 1030.2
20260510151820 49 44 3.0 7.0 0.00 0.10 0.10 88 1030.2
20260510151509 49 44 3.0 6.0 0.00 0.10 0.10 89 1030.1
20260510151200 49 44 3.0 6.0 0.00 0.10 0.10 89 1029.9
20260510150850 49 44 3.0 7.0 0.00 0.10 0.10 89 1030.0
20260510150549 49 44 4.0 7.0 0.00 0.10 0.10 89 1029.9
20260510150241 49 44 4.0 7.0 0.00 0.10 0.10 89 1029.8
20260510145933 49 44 4.0 7.0 0.00 0.10 0.10 89 1029.7
20260510145209 49 44 3.0 7.0 0.00 0.10 0.10 89 1029.7
20260510144903 49 44 3.0 6.0 0.00 0.10 0.10 89 1029.8
20260510144606 49 44 3.0 9.0 0.00 0.10 0.10 90 1029.8
20260510144253 49 44 4.0 9.0 0.00 0.10 0.10 90 1029.7
20260510143946 48 44 5.0 9.0 0.00 0.10 0.10 90 1029.6
20260510143204 48 44 5.0 10.0 0.00 0.10 0.10 90 1029.5
20260510142859 48 44 5.0 10.0 0.00 0.10 0.10 90 1029.7
20260510142559 48 44 6.0 10.0 0.00 0.10 0.10 90 1029.7
20260510142251 48 42 6.0 10.0 0.00 0.10 0.10 90 1029.7
20260510141528 49 37 5.0 9.0 0.00 0.10 0.10 91 1029.7
20260510141222 49 37 5.0 9.0 0.00 0.10 0.10 91 1029.8
20260510140920 49 35 5.0 8.0 0.00 0.10 0.10 91 1029.7
20260510140620 49 34 5.0 8.0 0.00 0.10 0.10 91 1029.6
20260510140313 49 34 4.0 9.0 0.00 0.10 0.10 91 1029.6
20260510140007 49 34 5.0 9.0 0.00 0.10 0.10 91 1029.6
20260510135654 50 34 5.0 9.0 0.00 0.10 0.10 91 1029.7
20260510135344 50 34 5.0 9.0 0.00 0.10 0.10 91 1029.6
20260510135033 50 34 5.0 9.0 0.00 0.10 0.10 91 1029.6
20260510134314 50 33 5.0 9.0 0.00 0.10 0.10 91 1029.3
20260510134013 50 33 6.0 9.0 0.00 0.10 0.10 91 1029.3
20260510133711 50 33 5.0 9.0 0.00 0.10 0.10 91 1029.3
20260510133414 50 33 5.0 9.0 0.00 0.10 0.10 91 1029.2
20260510133105 50 33 5.0 9.0 0.00 0.10 0.10 91 1029.4
20260510132326 50 33 4.0 8.0 0.00 0.10 0.10 91 1029.5
20260510132012 50 33 3.0 7.0 0.00 0.10 0.10 91 1029.5
20260510131711 50 33 3.0 6.0 0.00 0.10 0.10 91 1029.4
20260510131357 49 33 3.0 6.0 0.00 0.10 0.10 91 1029.4
20260510130632 49 33 2.0 6.0 0.00 0.10 0.10 91 1029.2
20260510130320 49 33 2.0 5.0 0.00 0.10 0.10 91 1029.0
20260510130007 49 33 2.0 5.0 0.00 0.10 0.10 91 1029.0
20260510125235 49 33 2.0 5.0 0.00 0.10 0.10 91 1029.0
20260510124937 49 33 2.0 5.0 0.00 0.10 0.10 91 1029.0
20260510124635 49 33 2.0 4.0 0.00 0.10 0.10 91 1029.1
20260510123454 48 33 2.0 5.0 0.00 0.10 0.10 90 1028.7
20260510123146 48 33 2.0 5.0 0.00 0.10 0.10 90 1028.7
20260510122839 48 33 2.0 5.0 0.00 0.10 0.10 90 1028.4
20260510122528 48 33 2.0 7.0 0.00 0.10 0.10 90 1028.1
20260510122214 48 33 2.0 7.0 0.00 0.10 0.10 90 1027.7
20260510121446 48 33 5.0 8.0 0.00 0.10 0.10 90 1027.3
20260510120731 48 32 6.0 8.0 0.04 0.10 0.10 90 1026.9
20260510120014 48 22 5.0 8.0 0.05 0.10 0.10 90 1026.7
20260510114809 49 13 4.0 8.0 0.05 0.09 0.10 90 1026.9
20260510114512 49 12 4.0 8.0 0.05 0.09 0.10 90 1026.9
20260510114203 49 12 4.0 8.0 0.05 0.09 0.09 90 1026.9
20260510113900 49 12 4.0 11.0 0.06 0.09 0.09 90 1026.8
20260510113602 49 11 4.0 11.0 0.08 0.09 0.09 89 1027.0
20260510112824 49 11 6.0 13.0 0.10 0.08 0.08 89 1027.4
20260510112513 49 11 7.0 13.0 0.10 0.08 0.08 89 1027.7
20260510112210 49 11 8.0 13.0 0.10 0.06 0.06 89 1027.7
20260510111903 49 5 9.0 17.0 0.19 0.06 0.06 89 1027.5
20260510111600 49 5 9.0 17.0 0.13 0.06 0.06 89 1027.6
20260510111248 49 5 10.0 17.0 0.16 0.04 0.05 89 1027.5
20260510110951 49 0 10.0 19.0 0.19 0.04 0.05 89 1027.5
20260510110640 49 5 11.0 19.0 0.05 0.03 0.04 89 1027.5
20260510110326 49 5 12.0 19.0 0.00 0.03 0.03 89 1027.3
20260510110026 49 5 12.0 19.0 0.00 0.03 0.03 89 1027.4
20260510105726 50 351 12.0 20.0 0.00 0.03 0.03 89 1027.3
20260510105412 50 348 11.0 20.0 0.00 0.02 0.02 89 1027.2
20260510104636 50 355 12.0 20.0 0.00 0.02 0.02 89 1026.7
20260510104329 50 0 12.0 20.0 0.00 0.02 0.02 88 1026.7
20260510104027 50 5 11.0 20.0 0.00 0.02 0.02 89 1026.6
20260510103715 50 9 11.0 18.0 0.00 0.02 0.02 88 1026.2
20260510102953 50 10 10.0 15.0 0.00 0.02 0.02 88 1026.1
20260510102652 50 5 9.0 15.0 0.00 0.02 0.02 88 1026.0
20260510102341 49 23 9.0 14.0 0.00 0.02 0.02 88 1025.8
20260510102033 49 26 8.0 13.0 0.00 0.02 0.02 88 1025.7
20260510101318 49 33 8.0 18.0 0.00 0.02 0.02 88 1025.5
20260510100139 50 45 9.0 18.0 0.00 0.02 0.02 87 1025.0
20260510095826 50 46 9.0 18.0 0.00 0.02 0.02 87 1024.8
20260510095053 50 40 8.0 12.0 0.00 0.02 0.02 87 1024.9
20260510094751 50 36 8.0 12.0 0.00 0.02 0.02 87 1024.9
20260510094445 50 31 8.0 12.0 0.00 0.02 0.02 87 1025.0
20260510094146 50 36 7.0 12.0 0.00 0.02 0.02 87 1025.0
20260510093833 50 38 7.0 12.0 0.00 0.02 0.02 87 1024.6
20260510093118 50 37 6.0 12.0 0.00 0.02 0.02 87 1024.8
20260510092808 50 44 5.0 9.0 0.00 0.02 0.02 87 1024.5
20260510092512 50 44 4.0 9.0 0.00 0.02 0.02 86 1024.2
20260510092212 50 44 4.0 8.0 0.00 0.02 0.02 86 1024.1
20260510091915 50 44 4.0 8.0 0.00 0.02 0.02 86 1024.0
20260510090716 50 44 6.0 12.0 0.00 0.02 0.02 86 1023.9
20260510090403 50 43 6.0 12.0 0.00 0.02 0.02 86 1024.0
20260510090059 50 42 7.0 12.0 0.00 0.02 0.02 86 1023.9
20260510085321 51 42 7.0 12.0 0.00 0.02 0.02 85 1023.8
20260510085024 51 53 6.0 12.0 0.00 0.02 0.02 85 1023.8
20260510084724 51 93 5.0 10.0 0.00 0.02 0.02 85 1023.9
20260510084419 51 94 5.0 10.0 0.00 0.02 0.02 85 1023.7
20260510083229 51 105 6.0 11.0 0.00 0.02 0.02 85 1023.2
20260510082928 51 105 7.0 11.0 0.00 0.02 0.02 85 1023.2
20260510082616 51 105 7.0 12.0 0.00 0.02 0.02 84 1023.0
20260510082315 51 105 7.0 12.0 0.00 0.02 0.02 84 1023.0
20260510082003 51 106 8.0 12.0 0.00 0.02 0.02 84 1022.9
20260510081658 51 105 8.0 14.0 0.00 0.02 0.02 84 1022.9
20260510080046 51 103 9.0 14.0 0.00 0.02 0.02 84 1023.1
20260510075744 51 103 8.0 14.0 0.00 0.02 0.02 83 1023.1
20260510075436 51 107 8.0 13.0 0.00 0.02 0.02 83 1023.4
20260510075129 51 85 7.0 12.0 0.00 0.02 0.02 82 1023.7
20260510074829 51 81 7.0 11.0 0.00 0.02 0.02 82 1023.8
20260510074120 51 76 7.0 13.0 0.05 0.02 0.02 81 1024.1
20260510073817 52 74 7.0 13.0 0.06 0.02 0.02 80 1024.3
20260510073504 52 71 7.0 13.0 0.08 0.02 0.02 79 1024.3
20260510073151 52 69 7.0 13.0 0.08 0.02 0.02 78 1024.4
20260510072851 53 72 7.0 13.0 0.08 0.01 0.02 77 1024.6
20260510072536 53 82 7.0 13.0 0.00 0.01 0.01 76 1024.5
20260510071825 54 63 8.0 13.0 0.00 0.00 0.00 73 1024.9
20260510071515 54 62 9.0 15.0 0.00 0.00 0.00 72 1025.0
20260510070746 55 52 9.0 15.0 0.00 0.00 0.00 71 1025.3
20260510070435 55 57 9.0 20.0 0.00 0.00 0.00 70 1025.3
20260510070131 55 59 10.0 20.0 0.00 0.00 0.00 70 1025.1
20260510065824 55 57 11.0 20.0 0.00 0.00 0.00 70 1025.0
20260510065526 55 50 11.0 20.0 0.00 0.00 0.00 69 1024.8
20260510065213 55 64 11.0 20.0 0.00 0.00 0.00 69 1024.6
20260510064916 55 61 11.0 20.0 0.00 0.00 0.00 69 1024.6
20260510064159 55 63 11.0 18.0 0.00 0.00 0.00 68 1024.2
20260510063429 55 68 11.0 20.0 0.00 0.00 0.00 66 1024.2
20260510063133 56 69 11.0 20.0 0.00 0.00 0.00 66 1024.2
20260510062826 56 91 11.0 20.0 0.00 0.00 0.00 65 1024.1
20260510062514 56 59 10.0 20.0 0.00 0.00 0.00 64 1023.9
20260510062205 56 72 10.0 20.0 0.00 0.00 0.00 64 1023.8
20260510061852 56 70 9.0 14.0 0.00 0.00 0.00 63 1023.5
20260510061543 56 74 9.0 20.0 0.00 0.00 0.00 62 1023.5
20260510061242 56 74 10.0 20.0 0.00 0.00 0.00 62 1023.4
20260510060941 56 68 11.0 20.0 0.00 0.00 0.00 62 1023.4
20260510060644 56 82 11.0 20.0 0.00 0.00 0.00 62 1023.4
20260510060331 56 82 11.0 20.0 0.00 0.00 0.00 62 1023.3
20260510060025 56 93 11.0 20.0 0.00 0.00 0.00 61 1023.3
20260510055717 56 86 11.0 20.0 0.00 0.00 0.00 61 1023.1
20260510055407 56 83 12.0 20.0 0.00 0.00 0.00 61 1023.2
20260510055055 56 82 12.0 20.0 0.00 0.00 0.00 61 1023.2
20260510054755 56 84 12.0 20.0 0.00 0.00 0.00 61 1023.0
20260510054452 56 90 12.0 21.0 0.00 0.00 0.00 61 1023.0
20260510054141 57 67 12.0 21.0 0.00 0.00 0.00 60 1022.9
20260510053839 57 61 13.0 21.0 0.00 0.00 0.00 60 1022.9
20260510053537 57 69 13.0 24.0 0.00 0.00 0.00 60 1022.9
20260510053236 57 69 13.0 24.0 0.00 0.00 0.00 60 1022.8
20260510052506 57 63 13.0 26.0 0.00 0.00 0.00 59 1022.9
20260510052202 57 78 14.0 26.0 0.00 0.00 0.00 59 1022.7
20260510051902 57 65 15.0 26.0 0.00 0.00 0.00 59 1022.7
20260510051559 58 65 16.0 26.0 0.00 0.00 0.00 58 1022.7
20260510051249 58 53 15.0 26.0 0.00 0.00 0.00 58 1022.5
20260510050953 58 78 14.0 26.0 0.00 0.00 0.00 58 1022.5
20260510050642 58 64 14.0 26.0 0.00 0.00 0.00 57 1022.3
20260510045934 59 64 14.0 26.0 0.00 0.00 0.00 56 1022.1
20260510045215 59 61 14.0 22.0 0.00 0.00 0.00 54 1022.3
20260510044032 60 59 13.0 26.0 0.00 0.00 0.00 57 1022.2
20260510043732 60 56 13.0 26.0 0.00 0.00 0.00 58 1022.1
20260510043023 60 59 13.0 26.0 0.00 0.00 0.00 59 1022.2
20260510042713 59 54 12.0 22.0 0.00 0.00 0.00 60 1022.3
20260510042402 59 46 13.0 22.0 0.00 0.00 0.00 60 1022.3
20260510042058 59 38 15.0 22.0 0.00 0.00 0.00 60 1022.3
20260510041338 58 15 9.0 22.0 0.00 0.00 0.00 60 1022.4
20260510041025 58 29 6.0 13.0 0.00 0.00 0.00 59 1021.7
20260510040719 59 97 6.0 9.0 0.00 0.00 0.00 59 1020.5
20260510040422 59 97 6.0 9.0 0.00 0.00 0.00 58 1020.2
20260510040112 59 97 6.0 9.0 0.00 0.00 0.00 58 1020.1
20260510035805 59 98 6.0 10.0 0.00 0.00 0.00 58 1020.0
20260510035502 59 98 5.0 10.0 0.00 0.00 0.00 57 1019.8
20260510034327 60 98 7.0 14.0 0.00 0.00 0.00 56 1019.1
20260510034025 61 96 7.0 14.0 0.00 0.00 0.00 56 1018.9
20260510033723 61 96 7.0 14.0 0.00 0.00 0.00 56 1018.7
20260510033426 61 96 8.0 14.0 0.00 0.00 0.00 56 1018.6
20260510033129 61 94 8.0 14.0 0.00 0.00 0.00 56 1018.4
20260510032822 61 91 8.0 14.0 0.00 0.00 0.00 56 1018.2
20260510032518 61 90 9.0 17.0 0.00 0.00 0.00 56 1018.1
20260510032212 62 88 9.0 17.0 0.00 0.00 0.00 56 1018.1
20260510031907 62 87 10.0 17.0 0.00 0.00 0.00 55 1018.1
20260510031609 62 88 10.0 17.0 0.00 0.00 0.00 55 1018.2
20260510031300 62 88 10.0 17.0 0.00 0.00 0.00 55 1018.2
20260510030949 62 84 9.0 17.0 0.00 0.00 0.00 55 1018.0
20260510030642 62 92 9.0 14.0 0.00 0.00 0.00 55 1017.9
20260510030342 62 89 9.0 14.0 0.00 0.00 0.00 55 1017.7
20260510030031 63 96 8.0 14.0 0.00 0.00 0.00 54 1017.6
20260510025730 63 92 9.0 14.0 0.00 0.00 0.00 54 1017.5
20260510024545 64 92 9.0 14.0 0.00 0.00 0.00 53 1017.3
20260510024238 64 91 9.0 14.0 0.00 0.00 0.00 52 1017.5
20260510023940 64 90 8.0 13.0 0.00 0.00 0.00 52 1017.7
20260510023632 64 88 8.0 15.0 0.00 0.00 0.00 52 1018.0
20260510023332 64 88 8.0 15.0 0.00 0.00 0.00 52 1018.0
20260510023029 64 88 8.0 15.0 0.00 0.00 0.00 52 1017.8
20260510022719 65 88 9.0 15.0 0.00 0.00 0.00 51 1017.8
20260510022414 65 86 9.0 15.0 0.00 0.00 0.00 51 1017.8
20260510021650 65 90 9.0 14.0 0.00 0.00 0.00 51 1017.7
20260510021349 65 90 9.0 14.0 0.00 0.00 0.00 50 1017.4
20260510021051 65 90 9.0 14.0 0.00 0.00 0.00 50 1017.4
20260510020740 66 90 9.0 14.0 0.00 0.00 0.00 50 1017.4
20260510020438 66 89 9.0 18.0 0.00 0.00 0.00 50 1017.4
20260510015659 66 89 9.0 18.0 0.00 0.00 0.00 49 1017.2
20260510015357 66 87 10.0 18.0 0.00 0.00 0.00 49 1017.1
20260510015046 66 86 10.0 18.0 0.00 0.00 0.00 49 1017.1
20260510014745 67 86 10.0 18.0 0.00 0.00 0.00 48 1016.9
20260510014437 67 86 9.0 17.0 0.00 0.00 0.00 48 1016.9
20260510014132 67 86 9.0 17.0 0.00 0.00 0.00 48 1016.8
20260510013419 67 91 9.0 17.0 0.00 0.00 0.00 48 1016.5
20260510012651 68 86 9.0 15.0 0.00 0.00 0.00 47 1016.4
20260510012346 68 84 9.0 15.0 0.00 0.00 0.00 47 1016.3
20260510012036 69 81 9.0 15.0 0.00 0.00 0.00 46 1016.2
20260510011327 70 83 9.0 15.0 0.00 0.00 0.00 45 1015.9
20260510011021 70 80 9.0 15.0 0.00 0.00 0.00 45 1015.8
20260510010245 71 80 9.0 13.0 0.00 0.00 0.00 43 1015.6
20260510005933 71 71 9.0 17.0 0.00 0.00 0.00 43 1015.6
20260510005629 72 65 9.0 17.0 0.00 0.00 0.00 42 1015.4
20260510005321 72 65 9.0 17.0 0.00 0.00 0.00 42 1015.3
20260510005020 72 71 9.0 18.0 0.00 0.00 0.00 41 1015.4
20260510004721 73 61 9.0 18.0 0.00 0.00 0.00 40 1015.4
20260510004409 73 66 8.0 18.0 0.00 0.00 0.00 40 1015.3
20260510004058 74 64 8.0 18.0 0.00 0.00 0.00 39 1015.3
20260510003800 74 58 8.0 18.0 0.00 0.00 0.00 38 1015.2
20260510003449 75 56 8.0 18.0 0.00 0.00 0.00 37 1015.1
20260510003148 75 61 8.0 18.0 0.00 0.00 0.00 35 1015.0
20260510002849 75 56 8.0 14.0 0.00 0.00 0.00 34 1015.0
20260510002536 76 57 8.0 14.0 0.00 0.00 0.00 34 1015.0
20260510002236 76 50 8.0 14.0 0.00 0.00 0.00 33 1014.9
20260510001935 76 46 8.0 17.0 0.00 0.00 0.00 32 1014.9
20260510001635 77 35 7.0 17.0 0.00 0.00 0.00 30 1014.8
20260510001334 77 43 8.0 17.0 0.00 0.00 0.00 30 1014.8
20260510001032 78 36 9.0 17.0 0.00 0.00 0.00 29 1014.7
20260510000719 78 37 10.0 17.0 0.00 0.00 0.00 29 1014.7
20260510000411 79 17 10.0 17.0 0.00 0.00 0.00 29 1014.7
20260510000103 79 28 9.0 15.0 0.00 0.00 0.00 28 1014.5
20260509235756 80 22 10.0 17.0 0.00 0.00 0.00 28 1014.4
20260509235036 80 23 10.0 17.0 0.00 0.00 0.00 28 1014.3
20260509234735 80 46 11.0 17.0 0.00 0.00 0.00 28 1014.3
20260509234433 80 31 11.0 17.0 0.00 0.00 0.00 28 1014.3
20260509234125 80 22 11.0 17.0 0.00 0.00 0.00 27 1014.3
20260509233817 80 22 11.0 18.0 0.00 0.00 0.00 28 1014.4
20260509233515 80 19 11.0 18.0 0.00 0.00 0.00 28 1014.4
20260509233208 80 15 10.0 18.0 0.00 0.00 0.00 28 1014.4
20260509232859 81 30 11.0 18.0 0.00 0.00 0.00 28 1014.4
20260509232548 81 39 10.0 18.0 0.00 0.00 0.00 27 1014.3
20260509232252 81 22 10.0 18.0 0.00 0.00 0.00 26 1014.4
20260509231945 82 20 10.0 18.0 0.00 0.00 0.00 27 1014.2
20260509231642 82 42 10.0 18.0 0.00 0.00 0.00 27 1014.2
20260509231336 82 41 11.0 18.0 0.00 0.00 0.00 26 1014.2
20260509231029 82 37 12.0 18.0 0.00 0.00 0.00 26 1014.2
20260509230725 82 15 11.0 18.0 0.00 0.00 0.00 26 1014.2
20260509230426 82 19 10.0 18.0 0.00 0.00 0.00 26 1014.2
20260509230127 83 12 9.0 18.0 0.00 0.00 0.00 25 1014.1
20260509225821 83 42 9.0 17.0 0.00 0.00 0.00 27 1014.1
20260509225514 83 28 9.0 21.0 0.00 0.00 0.00 26 1014.1
20260509225214 83 49 9.0 21.0 0.00 0.00 0.00 26 1014.1
20260509224910 83 32 11.0 21.0 0.00 0.00 0.00 26 1014.2
20260509224607 82 52 11.0 22.0 0.00 0.00 0.00 26 1014.1
20260509224301 82 22 11.0 22.0 0.00 0.00 0.00 26 1014.1
20260509224000 82 19 11.0 22.0 0.00 0.00 0.00 26 1014.2
20260509223703 82 29 12.0 22.0 0.00 0.00 0.00 26 1014.1
20260509223351 83 15 12.0 22.0 0.00 0.00 0.00 25 1014.2
20260509222626 83 355 12.0 22.0 0.00 0.00 0.00 25 1014.4
20260509222329 83 13 13.0 21.0 0.00 0.00 0.00 24 1014.4
20260509221603 83 5 12.0 21.0 0.00 0.00 0.00 26 1014.3
20260509221303 83 14 12.0 21.0 0.00 0.00 0.00 26 1014.4
20260509220124 83 16 11.0 21.0 0.00 0.00 0.00 26 1014.4
20260509215814 83 15 11.0 20.0 0.00 0.00 0.00 26 1014.4
20260509215501 83 19 12.0 20.0 0.00 0.00 0.00 27 1014.5
20260509215148 83 15 12.0 20.0 0.00 0.00 0.00 26 1014.4
20260509214841 83 5 13.0 20.0 0.00 0.00 0.00 26 1014.4
20260509214539 84 355 12.0 20.0 0.00 0.00 0.00 26 1014.3
20260509214238 84 10 11.0 20.0 0.00 0.00 0.00 26 1014.3
20260509213929 84 355 11.0 20.0 0.00 0.00 0.00 26 1014.3
20260509213625 84 19 12.0 21.0 0.00 0.00 0.00 27 1014.3
20260509213313 84 12 13.0 21.0 0.00 0.00 0.00 27 1014.4
20260509213004 84 11 14.0 21.0 0.00 0.00 0.00 26 1014.3
20260509212235 84 0 13.0 25.0 0.00 0.00 0.00 27 1014.3
20260509211101 84 15 13.0 25.0 0.00 0.00 0.00 26 1014.5
20260509210330 84 0 14.0 23.0 0.00 0.00 0.00 25 1014.5
20260509210033 84 13 13.0 23.0 0.00 0.00 0.00 25 1014.5
20260509205731 85 15 12.0 22.0 0.00 0.00 0.00 25 1014.5
20260509205418 85 5 11.0 21.0 0.00 0.00 0.00 26 1014.5
20260509205117 84 5 12.0 21.0 0.00 0.00 0.00 26 1014.4
20260509204813 84 346 13.0 21.0 0.00 0.00 0.00 26 1014.4
20260509204502 84 351 13.0 21.0 0.00 0.00 0.00 25 1014.5
20260509204203 85 345 13.0 21.0 0.00 0.00 0.00 25 1014.4
20260509203432 84 31 10.0 22.0 0.00 0.00 0.00 26 1014.3
20260509203127 84 33 10.0 22.0 0.00 0.00 0.00 26 1014.2
20260509202819 85 14 9.0 22.0 0.00 0.00 0.00 25 1014.4
20260509202513 85 31 10.0 22.0 0.00 0.00 0.00 25 1014.3
20260509202213 86 22 10.0 22.0 0.00 0.00 0.00 24 1014.4
20260509201914 85 355 9.0 18.0 0.00 0.00 0.00 24 1014.3
20260509201616 85 317 9.0 17.0 0.00 0.00 0.00 24 1014.4
20260509201304 85 317 10.0 23.0 0.00 0.00 0.00 24 1014.3
20260509201000 85 347 11.0 23.0 0.00 0.00 0.00 26 1014.5
20260509200653 84 0 12.0 23.0 0.00 0.00 0.00 25 1014.3
20260509200345 84 0 12.0 23.0 0.00 0.00 0.00 25 1014.4
20260509200048 84 10 12.0 23.0 0.00 0.00 0.00 25 1014.4
20260509195745 84 5 12.0 23.0 0.00 0.00 0.00 24 1014.5
20260509195434 85 346 9.0 20.0 0.00 0.00 0.00 25 1014.4
20260509194706 84 350 8.0 17.0 0.00 0.00 0.00 27 1014.6
20260509194408 84 26 7.0 17.0 0.00 0.00 0.00 26 1014.6
20260509193645 84 322 5.0 14.0 0.00 0.00 0.00 27 1014.7
20260509193333 84 313 6.0 14.0 0.00 0.00 0.00 25 1014.8
20260509193028 84 313 7.0 14.0 0.00 0.00 0.00 26 1014.7
20260509192725 84 327 8.0 13.0 0.00 0.00 0.00 26 1014.7
20260509192414 84 340 8.0 13.0 0.00 0.00 0.00 26 1014.9
20260509192113 83 346 7.0 13.0 0.00 0.00 0.00 27 1014.8
20260509191814 83 329 8.0 18.0 0.00 0.00 0.00 27 1014.8
20260509191502 82 327 8.0 18.0 0.00 0.00 0.00 26 1014.8
20260509191154 83 346 8.0 18.0 0.00 0.00 0.00 26 1014.8
20260509190438 83 9 8.0 19.0 0.00 0.00 0.00 27 1014.9
20260509190138 83 9 9.0 19.0 0.00 0.00 0.00 28 1014.9
20260509185835 83 5 10.0 19.0 0.00 0.00 0.00 27 1015.0
20260509185113 82 317 8.0 19.0 0.00 0.00 0.00 26 1015.0
20260509184811 82 328 8.0 17.0 0.00 0.00 0.00 27 1014.9
20260509184508 82 310 8.0 17.0 0.00 0.00 0.00 27 1014.9
20260509184153 81 297 8.0 17.0 0.00 0.00 0.00 28 1014.9
20260509183844 81 311 8.0 17.0 0.00 0.00 0.00 28 1015.0
20260509183539 81 304 8.0 17.0 0.00 0.00 0.00 28 1015.0
20260509182816 81 342 6.0 17.0 0.00 0.00 0.00 29 1015.0
20260509182042 80 340 8.0 17.0 0.00 0.00 0.00 29 1015.2
20260509181741 80 336 9.0 17.0 0.00 0.00 0.00 28 1015.4
20260509181433 80 344 8.0 17.0 0.00 0.00 0.00 28 1015.4
20260509181135 80 304 7.0 17.0 0.00 0.00 0.00 27 1015.4
20260509180824 81 336 7.0 17.0 0.00 0.00 0.00 29 1015.4
20260509180523 81 322 8.0 14.0 0.00 0.00 0.00 29 1015.5
20260509180213 80 321 8.0 14.0 0.00 0.00 0.00 29 1015.4
20260509175902 80 323 8.0 14.0 0.00 0.00 0.00 29 1015.5
20260509175605 80 302 8.0 14.0 0.00 0.00 0.00 29 1015.6
20260509174839 79 297 9.0 14.0 0.00 0.00 0.00 29 1015.7
20260509173655 79 281 8.0 18.0 0.00 0.00 0.00 31 1015.6
20260509172929 80 285 8.0 18.0 0.00 0.00 0.00 30 1015.7
20260509172619 80 284 9.0 18.0 0.00 0.00 0.00 30 1015.7
20260509172320 80 255 9.0 18.0 0.00 0.00 0.00 31 1015.7
20260509172021 79 287 10.0 17.0 0.00 0.00 0.00 31 1015.7
20260509171711 79 244 11.0 17.0 0.00 0.00 0.00 32 1016.4
20260509170948 79 272 11.0 21.0 0.00 0.00 0.00 32 1015.7
20260509170641 78 267 12.0 21.0 0.00 0.00 0.00 32 1015.7
20260509170342 78 244 11.0 21.0 0.00 0.00 0.00 33 1015.8
20260509170031 78 244 12.0 22.0 0.00 0.00 0.00 32 1015.8
20260509165728 78 283 10.0 22.0 0.00 0.00 0.00 33 1015.7
20260509165418 78 251 12.0 22.0 0.00 0.00 0.00 34 1015.7
20260509165105 77 248 12.0 22.0 0.00 0.00 0.00 33 1015.8
20260509164805 77 239 13.0 22.0 0.00 0.00 0.00 32 1015.9
20260509164456 78 252 13.0 22.0 0.00 0.00 0.00 31 1015.9
20260509164151 77 243 12.0 22.0 0.00 0.00 0.00 33 1016.0
20260509163838 77 233 14.0 22.0 0.00 0.00 0.00 32 1016.1
20260509163535 78 238 14.0 27.0 0.00 0.00 0.00 33 1016.1
20260509163222 77 259 16.0 27.0 0.00 0.00 0.00 33 1016.2
20260509162922 77 250 16.0 27.0 0.00 0.00 0.00 33 1016.1
20260509162609 77 269 17.0 27.0 0.00 0.00 0.00 34 1016.0
20260509162310 76 239 17.0 27.0 0.00 0.00 0.00 35 1016.0
20260509162006 76 229 17.0 27.0 0.00 0.00 0.00 35 1016.1
20260509161705 76 250 17.0 24.0 0.00 0.00 0.00 35 1015.9
20260509161356 75 229 18.0 25.0 0.00 0.00 0.00 35 1016.0
20260509161052 75 248 18.0 25.0 0.00 0.00 0.00 36 1016.1